When you browse on this site, cookies collect data to enhance your experience and personalize the content and advertising you see.
Visit our Privacy Policy to learn more. By continuing to use the site, you agree to this use of cookies and data.
  • In Latvia
  • List of Countries
  • For 7 days
  • Water Temperature
  • Weather Map
  • Weather Widgets
  • user-avatar
    Login

    Hourly Weather Mingachevir

    Today, 25 August, Sunday

    Time Temperature Precipitation Wind Pressure Humidity
    00:00 +28°C° 0 mm 4 mps 751 mmHg 48%
    01:00 +27°C° 0 mm 3 mps 751 mmHg 50%
    02:00 +26°C° 0 mm 2 mps 751 mmHg 52%
    03:00 +26°C° 0 mm 1 mps 751 mmHg 54%
    04:00 +26°C° 0.2 mm 1 mps 751 mmHg 55%
    05:00 +26°C° 0.2 mm 1 mps 751 mmHg 56%
    06:00 +26°C° 0.2 mm 1 mps 751 mmHg 58%
    07:00 +28°C° 0 mm 1 mps 751 mmHg 50%
    08:00 +31°C° 0 mm 1 mps 752 mmHg 42%
    09:00 +33°C° 0 mm 1 mps 752 mmHg 32%
    10:00 +36°C° 0 mm 2 mps 751 mmHg 28%
    11:00 +37°C° 0 mm 3 mps 751 mmHg 23%
    12:00 +40°C° 0 mm 4 mps 750 mmHg 18%
    13:00 +41°C° 0 mm 4 mps 750 mmHg 17%
    14:00 +41°C° 0 mm 4 mps 750 mmHg 16%
    15:00 +42°C° 0 mm 4 mps 749 mmHg 15%
    16:00 +41°C° 0 mm 4 mps 750 mmHg 15%
    17:00 +40°C° 0 mm 5 mps 750 mmHg 16%
    18:00 +39°C° 0 mm 6 mps 750 mmHg 17%
    19:00 +35°C° 0 mm 5 mps 750 mmHg 21%
    20:00 +32°C° 0 mm 5 mps 751 mmHg 24%
    21:00 +29°C° 0 mm 4 mps 751 mmHg 28%
    22:00 +28°C° 0 mm 4 mps 751 mmHg 33%
    23:00 +27°C° 0 mm 3 mps 752 mmHg 38%

    Tomorrow, 26 August, Monday

    Time Temperature Precipitation Wind Pressure Humidity
    00:00 +25°C° 0 mm 3 mps 752 mmHg 43%
    01:00 +25°C° 0 mm 2 mps 752 mmHg 45%
    02:00 +24°C° 0 mm 2 mps 752 mmHg 47%
    03:00 +23°C° 0 mm 1 mps 752 mmHg 49%
    04:00 +24°C° 0 mm 1 mps 752 mmHg 50%
    05:00 +24°C° 0 mm 1 mps 752 mmHg 51%
    06:00 +22°C° 0 mm 0 mps 752 mmHg 51%
    07:00 +26°C° 0 mm 1 mps 752 mmHg 43%
    08:00 +29°C° 0 mm 2 mps 753 mmHg 35%
    09:00 +32°C° 0 mm 2 mps 753 mmHg 27%
    10:00 +34°C° 0 mm 3 mps 753 mmHg 23%
    11:00 +36°C° 0 mm 4 mps 752 mmHg 19%
    12:00 +37°C° 0 mm 5 mps 752 mmHg 15%
    13:00 +39°C° 0 mm 5 mps 752 mmHg 14%
    14:00 +40°C° 0 mm 5 mps 752 mmHg 13%
    15:00 +40°C° 0 mm 6 mps 751 mmHg 12%
    16:00 +39°C° 0 mm 5 mps 752 mmHg 15%
    17:00 +36°C° 0 mm 5 mps 752 mmHg 17%
    18:00 +35°C° 0 mm 4 mps 752 mmHg 19%
    19:00 +33°C° 0 mm 5 mps 753 mmHg 24%
    20:00 +32°C° 0 mm 6 mps 754 mmHg 28%
    21:00 +29°C° 0 mm 7 mps 754 mmHg 33%
    22:00 +29°C° 0 mm 7 mps 754 mmHg 32%
    23:00 +29°C° 0 mm 7 mps 755 mmHg 32%

    Day after tomorrow, 27 August, Tuesday

    Time Temperature Precipitation Wind Pressure Humidity
    00:00 +29°C° 0 mm 7 mps 755 mmHg 32%
    01:00 +28°C° 0.1 mm 6 mps 755 mmHg 35%
    02:00 +27°C° 0.1 mm 5 mps 754 mmHg 39%
    03:00 +26°C° 0.1 mm 4 mps 754 mmHg 42%
    04:00 +25°C° 0.2 mm 4 mps 754 mmHg 44%
    05:00 +25°C° 0.2 mm 4 mps 754 mmHg 46%
    06:00 +23°C° 0.2 mm 4 mps 754 mmHg 47%
    07:00 +26°C° 0 mm 5 mps 754 mmHg 42%
    08:00 +28°C° 0 mm 6 mps 754 mmHg 37%
    09:00 +30°C° 0 mm 7 mps 753 mmHg 32%
    10:00 +33°C° 0 mm 6 mps 753 mmHg 29%
    11:00 +34°C° 0 mm 6 mps 752 mmHg 27%
    12:00 +35°C° 0 mm 6 mps 752 mmHg 25%
    13:00 +35°C° 0 mm 5 mps 751 mmHg 24%
    14:00 +36°C° 0 mm 5 mps 751 mmHg 23%
    15:00 +36°C° 0 mm 5 mps 750 mmHg 22%
    16:00 +35°C° 0.1 mm 4 mps 750 mmHg 25%
    17:00 +34°C° 0.1 mm 4 mps 750 mmHg 29%
    18:00 +33°C° 0.1 mm 4 mps 750 mmHg 32%
    19:00 +30°C° 0 mm 4 mps 750 mmHg 37%
    20:00 +29°C° 0 mm 4 mps 750 mmHg 42%
    21:00 +27°C° 0 mm 5 mps 751 mmHg 47%
    22:00 +26°C° 0 mm 4 mps 751 mmHg 51%
    23:00 +25°C° 0 mm 3 mps 751 mmHg 55%

    28 August, Wednesday

    Time Temperature Precipitation Wind Pressure Humidity
    00:00 +24°C° 0 mm 3 mps 751 mmHg 58%
    01:00 +24°C° 0 mm 2 mps 751 mmHg 61%
    02:00 +23°C° 0 mm 2 mps 751 mmHg 64%
    03:00 +22°C° 0 mm 1 mps 750 mmHg 67%
    04:00 +23°C° 0 mm 1 mps 751 mmHg 66%
    05:00 +23°C° 0 mm 1 mps 751 mmHg 65%
    06:00 +21°C° 0 mm 0 mps 751 mmHg 63%
    07:00 +25°C° 0 mm 1 mps 751 mmHg 56%
    08:00 +27°C° 0 mm 1 mps 751 mmHg 49%
    09:00 +29°C° 0 mm 1 mps 751 mmHg 41%
    10:00 +31°C° 0 mm 2 mps 751 mmHg 37%
    11:00 +32°C° 0 mm 2 mps 750 mmHg 34%
    12:00 +35°C° 0 mm 2 mps 750 mmHg 30%
    13:00 +36°C° 0 mm 2 mps 750 mmHg 28%
    14:00 +36°C° 0 mm 3 mps 749 mmHg 27%
    15:00 +37°C° 0 mm 3 mps 749 mmHg 25%
    16:00 +36°C° 0 mm 3 mps 749 mmHg 27%
    17:00 +36°C° 0 mm 3 mps 749 mmHg 28%
    18:00 +35°C° 0 mm 3 mps 749 mmHg 30%
    19:00 +33°C° 0 mm 4 mps 750 mmHg 35%
    20:00 +29°C° 0 mm 5 mps 750 mmHg 41%
    21:00 +27°C° 0 mm 6 mps 751 mmHg 47%
    22:00 +26°C° 0 mm 5 mps 751 mmHg 52%
    23:00 +25°C° 0 mm 5 mps 751 mmHg 57%

    29 August, Thursday

    Time Temperature Precipitation Wind Pressure Humidity
    00:00 +23°C° 0 mm 4 mps 751 mmHg 61%
    01:00 +22°C° 0 mm 3 mps 751 mmHg 63%
    02:00 +22°C° 0 mm 3 mps 751 mmHg 65%
    03:00 +22°C° 0 mm 3 mps 751 mmHg 67%
    04:00 +23°C° 0 mm 2 mps 751 mmHg 68%
    05:00 +23°C° 0 mm 1 mps 751 mmHg 70%
    06:00 +23°C° 0 mm 1 mps 752 mmHg 72%
    07:00 +25°C° 0 mm 1 mps 751 mmHg 62%
    08:00 +27°C° 0 mm 1 mps 751 mmHg 53%
    09:00 +29°C° 0 mm 2 mps 751 mmHg 43%
    10:00 +31°C° 0 mm 2 mps 751 mmHg 38%
    11:00 +33°C° 0 mm 3 mps 750 mmHg 32%
    12:00 +35°C° 0 mm 4 mps 750 mmHg 27%
    13:00 +36°C° 0 mm 4 mps 749 mmHg 26%
    14:00 +37°C° 0 mm 4 mps 749 mmHg 24%
    15:00 +38°C° 0 mm 4 mps 749 mmHg 23%
    16:00 +36°C° 0 mm 6 mps 749 mmHg 25%
    17:00 +35°C° 0 mm 8 mps 749 mmHg 28%
    18:00 +33°C° 0 mm 9 mps 749 mmHg 30%
    19:00 +31°C° 0 mm 9 mps 750 mmHg 41%
    20:00 +27°C° 0 mm 8 mps 751 mmHg 51%
    21:00 +24°C° 0 mm 7 mps 751 mmHg 62%
    22:00 +23°C° 0.2 mm 7 mps 751 mmHg 67%
    23:00 +22°C° 0.2 mm 7 mps 751 mmHg 71%

    30 August, Friday

    Time Temperature Precipitation Wind Pressure Humidity
    00:00 +22°C° 0.2 mm 7 mps 752 mmHg 76%
    01:00 +21°C° 0.3 mm 7 mps 752 mmHg 77%
    02:00 +21°C° 0.3 mm 6 mps 751 mmHg 78%
    03:00 +21°C° 0.3 mm 5 mps 751 mmHg 79%
    04:00 +21°C° 0.2 mm 5 mps 752 mmHg 80%
    05:00 +21°C° 0.2 mm 4 mps 752 mmHg 80%
    06:00 +21°C° 0.2 mm 4 mps 752 mmHg 80%
    07:00 +21°C° 0.1 mm 4 mps 752 mmHg 78%
    08:00 +21°C° 0.1 mm 5 mps 752 mmHg 75%
    09:00 +22°C° 0.1 mm 5 mps 752 mmHg 73%
    10:00 +22°C° 0.1 mm 5 mps 752 mmHg 69%
    11:00 +23°C° 0.1 mm 5 mps 752 mmHg 66%
    12:00 +23°C° 0.1 mm 5 mps 751 mmHg 62%
    13:00 +25°C° 0.2 mm 5 mps 751 mmHg 60%
    14:00 +25°C° 0.2 mm 5 mps 751 mmHg 59%
    15:00 +26°C° 0.2 mm 6 mps 751 mmHg 57%
    16:00 +23°C° 0.3 mm 5 mps 751 mmHg 63%
    17:00 +22°C° 0.3 mm 4 mps 751 mmHg 69%
    18:00 +21°C° 0.3 mm 4 mps 751 mmHg 75%
    19:00 +21°C° 0.3 mm 4 mps 751 mmHg 77%
    20:00 +21°C° 0.3 mm 4 mps 752 mmHg 79%
    21:00 +20°C° 0.3 mm 4 mps 752 mmHg 81%
    22:00 +20°C° 0.1 mm 4 mps 752 mmHg 82%
    23:00 +19°C° 0.1 mm 4 mps 751 mmHg 83%
    Show more